Вернуться в каталог

PRAETORIAN SDA_517

АктивенPO
NORAD 100075·PAYLOAD·🇺🇸 United States

Запущен Jul 16, 2026 с Vandenberg Space Force Base

Loading…

Ближайшие Пролёты (ближайшие 24 часа)

TLE

СвежийSource: Space-Track

Эпоха: Sep 14, 2026, 17:43 UTC

1 A0075U 26163S   26257.73846211  .00000133  00000-0  10433-3 0  9995
2 A0075  81.4773 255.1614 0017528  56.3130 303.9696 13.86148230  8302

Отслеживайте PRAETORIAN SDA_517 в реальном времени с AllMySat

Download on the App Store